BEIDOU G5

Last updated on April 2, 2019, 3:15 a.m. UTC

1 38091U 12008A   19091.15265707  .00000044  00000-0  00000+0 0  9992
2 38091   1.9743  68.8276 0005218 300.8649 293.1811  1.00269757 26066
UTC
Height (km)
Latitude
Longitude
Inclination
Orbital Period
UTC large
Height (km)
Speed (km/s)
/
Latitude / Longitude
Inclination (degrees)
Orbital Period (minutes)
Azimuth
Elevation
Range (km)
Doppler Factor
iOS Compass Heading
iOS Angle

Next 30 passes for location: Hong Kong

Rise time Rise Azimuth (degrees) Set time Set Azimuth (degrees) Duration Max altitude (degrees)

No matching passes for this satellites